Time,TemperatureF,DewpointF,PressureIn,WindDirection,WindDirectionDegrees,WindSpeedMPH,WindSpeedGustMPH,Humidity,HourlyPrecipIn,Conditions,Clouds,dailyrainin,SoftwareType,DateUTC
2013-06-10 00:03:00,81.0,76.0,30.11,ESE,115,0.0,3.0,84,0.00,,,0.00,,2013-06-10 04:03:00,
2013-06-10 00:12:00,81.0,76.0,30.11,ESE,115,0.0,3.0,84,0.00,,,0.00,,2013-06-10 04:12:00,
2013-06-10 00:23:00,81.0,76.0,30.11,ESE,105,1.0,6.0,85,0.00,,,0.00,,2013-06-10 04:23:00,
2013-06-10 00:33:00,81.0,76.0,30.10,ESE,118,2.0,7.0,85,0.00,,,0.00,,2013-06-10 04:33:00,
2013-06-10 00:42:00,81.0,76.0,30.10,ESE,118,2.0,7.0,85,0.00,,,0.00,,2013-06-10 04:42:00,
2013-06-10 00:52:00,81.0,76.0,30.10,ESE,108,3.0,7.0,85,0.00,,,0.00,,2013-06-10 04:52:00,
2013-06-10 01:02:00,80.0,75.0,30.09,NE,47,1.0,5.0,85,0.00,,,0.00,,2013-06-10 05:02:00,
2013-06-10 01:12:00,80.0,75.0,30.09,NE,47,1.0,5.0,85,0.00,,,0.00,,2013-06-10 05:12:00,
2013-06-10 01:22:00,80.0,75.0,30.10,SSE,152,1.0,4.0,86,0.00,,,0.00,,2013-06-10 05:22:00,
2013-06-10 01:32:00,80.0,75.0,30.09,ESE,114,1.0,4.0,85,0.00,,,0.00,,2013-06-10 05:32:00,
2013-06-10 01:42:00,80.0,75.0,30.09,ESE,114,1.0,4.0,85,0.00,,,0.00,,2013-06-10 05:42:00,
2013-06-10 01:52:00,80.0,75.0,30.09,ENE,76,0.0,6.0,85,0.00,,,0.00,,2013-06-10 05:52:00,
2013-06-10 02:02:00,80.0,75.0,30.08,East,87,1.0,4.0,86,0.00,,,0.00,,2013-06-10 06:02:00,
2013-06-10 02:12:00,80.0,75.0,30.08,East,87,1.0,4.0,86,0.00,,,0.00,,2013-06-10 06:12:00,
2013-06-10 02:22:00,80.0,76.0,30.08,SE,125,1.0,4.0,88,0.00,,,0.00,,2013-06-10 06:22:00,
2013-06-10 02:32:00,80.0,76.0,30.08,ESE,116,1.0,4.0,89,0.00,,,0.00,,2013-06-10 06:32:00,
2013-06-10 02:42:00,80.0,76.0,30.08,ESE,116,1.0,4.0,89,0.00,,,0.00,,2013-06-10 06:42:00,
2013-06-10 02:53:00,80.0,76.0,30.08,East,91,1.0,4.0,89,0.00,,,0.00,,2013-06-10 06:53:00,
2013-06-10 03:02:00,80.0,76.0,30.08,East,96,0.0,3.0,89,0.00,,,0.00,,2013-06-10 07:02:00,
2013-06-10 03:12:00,80.0,76.0,30.08,East,96,0.0,3.0,89,0.00,,,0.00,,2013-06-10 07:12:00,
2013-06-10 03:22:00,80.0,76.0,30.07,East,86,1.0,4.0,89,0.00,,,0.00,,2013-06-10 07:22:00,
2013-06-10 03:32:00,80.0,76.0,30.07,ESE,103,1.0,3.0,89,0.00,,,0.00,,2013-06-10 07:32:00,
2013-06-10 03:42:00,80.0,76.0,30.07,ESE,103,1.0,3.0,89,0.00,,,0.00,,2013-06-10 07:42:00,
2013-06-10 03:52:00,80.0,76.0,30.06,East,85,1.0,3.0,89,0.00,,,0.00,,2013-06-10 07:52:00,
2013-06-10 04:02:00,80.0,76.0,30.06,ENE,77,0.0,3.0,89,0.00,,,0.00,,2013-06-10 08:02:00,
2013-06-10 04:12:00,80.0,76.0,30.06,ENE,77,0.0,3.0,89,0.00,,,0.00,,2013-06-10 08:12:00,
2013-06-10 04:22:00,80.0,76.0,30.06,ESE,108,1.0,6.0,89,0.00,,,0.00,,2013-06-10 08:22:00,
2013-06-10 04:32:00,80.0,76.0,30.06,SE,136,1.0,6.0,88,0.00,,,0.00,,2013-06-10 08:32:00,
2013-06-10 04:42:00,80.0,76.0,30.06,SE,136,1.0,6.0,88,0.00,,,0.00,,2013-06-10 08:42:00,
2013-06-10 04:52:00,80.0,76.0,30.06,East,101,1.0,6.0,88,0.00,,,0.00,,2013-06-10 08:52:00,
2013-06-10 05:02:00,80.0,76.0,30.06,ENE,63,1.0,4.0,88,0.00,,,0.00,,2013-06-10 09:02:00,
2013-06-10 05:12:00,80.0,76.0,30.06,ENE,63,1.0,4.0,88,0.00,,,0.00,,2013-06-10 09:12:00,
2013-06-10 05:22:00,80.0,76.0,30.06,East,98,3.0,5.0,88,0.00,,,0.00,,2013-06-10 09:22:00,
2013-06-10 05:32:00,80.0,76.0,30.06,ESE,114,2.0,6.0,88,0.00,,,0.00,,2013-06-10 09:32:00,
2013-06-10 05:42:00,80.0,76.0,30.06,ESE,114,2.0,6.0,88,0.00,,,0.00,,2013-06-10 09:42:00,
2013-06-10 05:53:00,80.0,76.0,30.06,ESE,106,2.0,4.0,88,0.00,,,0.00,,2013-06-10 09:53:00,
2013-06-10 06:03:00,80.0,76.0,30.06,East,91,3.0,5.0,88,0.00,,,0.00,,2013-06-10 10:03:00,
2013-06-10 06:12:00,80.0,76.0,30.06,East,91,3.0,5.0,88,0.00,,,0.00,,2013-06-10 10:12:00,
2013-06-10 06:23:00,80.0,76.0,30.06,East,88,3.0,6.0,88,0.00,,,0.00,,2013-06-10 10:23:00,
2013-06-10 06:33:00,80.0,76.0,30.06,ESE,123,1.0,5.0,88,0.00,,,0.00,,2013-06-10 10:33:00,
2013-06-10 06:42:00,80.0,76.0,30.06,ESE,123,1.0,5.0,88,0.00,,,0.00,,2013-06-10 10:42:00,
2013-06-10 06:52:00,80.0,76.0,30.06,ESE,108,2.0,7.0,88,0.00,,,0.00,,2013-06-10 10:52:00,
2013-06-10 07:03:00,80.0,76.0,30.07,ESE,107,0.0,3.0,87,0.00,,,0.00,,2013-06-10 11:03:00,
2013-06-10 07:12:00,80.0,76.0,30.07,ESE,107,0.0,3.0,87,0.00,,,0.00,,2013-06-10 11:12:00,
2013-06-10 07:22:00,80.0,76.0,30.07,SE,125,2.0,5.0,87,0.00,,,0.00,,2013-06-10 11:22:00,
2013-06-10 07:32:00,81.0,77.0,30.07,ESE,114,1.0,6.0,87,0.00,,,0.00,,2013-06-10 11:32:00,
2013-06-10 07:42:00,81.0,77.0,30.07,ESE,114,1.0,6.0,87,0.00,,,0.00,,2013-06-10 11:42:00,
2013-06-10 07:52:00,81.0,76.0,30.08,ESE,117,0.0,6.0,86,0.00,,,0.00,,2013-06-10 11:52:00,
2013-06-10 08:02:00,82.0,77.0,30.08,ESE,105,0.0,6.0,84,0.00,,,0.00,,2013-06-10 12:02:00,
2013-06-10 08:12:00,82.0,77.0,30.08,ESE,105,0.0,6.0,84,0.00,,,0.00,,2013-06-10 12:12:00,
2013-06-10 08:22:00,83.0,77.0,30.09,ESE,111,1.0,5.0,82,0.00,,,0.00,,2013-06-10 12:22:00,
2013-06-10 08:32:00,83.0,77.0,30.09,East,101,1.0,6.0,82,0.00,,,0.00,,2013-06-10 12:32:00,
2013-06-10 08:42:00,83.0,77.0,30.09,East,101,1.0,6.0,82,0.00,,,0.00,,2013-06-10 12:42:00,
2013-06-10 08:52:00,84.0,77.0,30.09,SSE,163,2.0,8.0,80,0.00,,,0.00,,2013-06-10 12:52:00,
2013-06-10 09:02:00,85.0,77.0,30.10,SE,127,1.0,4.0,78,0.00,,,0.00,,2013-06-10 13:02:00,
2013-06-10 09:12:00,85.0,77.0,30.10,SE,127,1.0,4.0,78,0.00,,,0.00,,2013-06-10 13:12:00,
2013-06-10 09:22:00,86.0,78.0,30.09,East,89,3.0,10.0,77,0.00,,,0.00,,2013-06-10 13:22:00,
2013-06-10 09:32:00,86.0,77.0,30.09,ENE,70,5.0,8.0,74,0.00,,,0.00,,2013-06-10 13:32:00,
2013-06-10 09:42:00,86.0,77.0,30.09,ENE,70,5.0,8.0,74,0.00,,,0.00,,2013-06-10 13:42:00,
2013-06-10 09:52:00,86.0,77.0,30.09,East,91,3.0,10.0,74,0.00,,,0.00,,2013-06-10 13:52:00,
2013-06-10 10:02:00,86.0,77.0,30.09,East,98,2.0,7.0,75,0.00,,,0.00,,2013-06-10 14:02:00,
2013-06-10 10:12:00,87.0,77.0,30.10,ENE,76,2.0,7.0,73,0.00,,,0.00,,2013-06-10 14:12:00,
2013-06-10 10:22:00,87.0,77.0,30.10,ENE,76,2.0,7.0,73,0.00,,,0.00,,2013-06-10 14:22:00,
2013-06-10 10:32:00,87.0,76.0,30.10,ESE,110,6.0,11.0,71,0.00,,,0.00,,2013-06-10 14:32:00,
2013-06-10 10:42:00,87.0,76.0,30.10,ESE,110,6.0,11.0,71,0.00,,,0.00,,2013-06-10 14:42:00,
2013-06-10 10:52:00,86.0,77.0,30.10,East,84,1.0,9.0,74,0.00,,,0.00,,2013-06-10 14:52:00,
2013-06-10 11:02:00,87.0,77.0,30.10,ENE,77,3.0,9.0,72,0.00,,,0.00,,2013-06-10 15:02:00,
2013-06-10 11:12:00,87.0,77.0,30.10,ENE,77,3.0,9.0,72,0.00,,,0.00,,2013-06-10 15:12:00,
2013-06-10 11:22:00,87.0,76.0,30.10,East,83,3.0,9.0,71,0.00,,,0.00,,2013-06-10 15:22:00,
2013-06-10 11:33:00,87.0,76.0,30.10,SE,124,4.0,8.0,71,0.00,,,0.00,,2013-06-10 15:33:00,
2013-06-10 11:43:00,87.0,77.0,30.10,ENE,60,3.0,7.0,72,0.00,,,0.00,,2013-06-10 15:43:00,
2013-06-10 11:53:00,87.0,77.0,30.10,ENE,60,3.0,7.0,72,0.00,,,0.00,,2013-06-10 15:53:00,
2013-06-10 12:03:00,88.0,77.0,30.10,East,80,3.0,9.0,69,0.00,,,0.00,,2013-06-10 16:03:00,
2013-06-10 12:13:00,88.0,77.0,30.09,ESE,121,2.0,10.0,71,0.00,,,0.00,,2013-06-10 16:13:00,
2013-06-10 12:23:00,88.0,77.0,30.09,ESE,121,2.0,10.0,71,0.00,,,0.00,,2013-06-10 16:23:00,
2013-06-10 12:33:00,88.0,77.0,30.09,SE,134,4.0,10.0,70,0.00,,,0.00,,2013-06-10 16:33:00,
2013-06-10 12:43:00,88.0,77.0,30.08,WNW,285,4.0,9.0,70,0.00,,,0.00,,2013-06-10 16:43:00,
2013-06-10 12:53:00,88.0,77.0,30.08,WNW,285,4.0,9.0,70,0.00,,,0.00,,2013-06-10 16:53:00,
2013-06-10 13:03:00,88.0,77.0,30.08,SSE,155,4.0,13.0,70,0.00,,,0.00,,2013-06-10 17:03:00,
2013-06-10 13:14:00,89.0,78.0,30.08,ESE,104,2.0,9.0,71,0.00,,,0.00,,2013-06-10 17:14:00,
2013-06-10 13:27:00,89.0,78.0,30.08,ESE,104,2.0,9.0,71,0.00,,,0.00,,2013-06-10 17:27:00,
2013-06-10 13:38:00,89.0,78.0,30.07,ENE,60,3.0,7.0,71,0.00,,,0.00,,2013-06-10 17:38:00,
2013-06-10 13:48:00,88.0,78.0,30.08,ESE,104,3.0,8.0,72,0.00,,,0.00,,2013-06-10 17:48:00,
2013-06-10 13:58:00,88.0,78.0,30.08,ESE,104,3.0,8.0,72,0.00,,,0.00,,2013-06-10 17:58:00,
2013-06-10 14:07:00,88.0,78.0,30.07,ESE,111,4.0,10.0,72,0.00,,,0.00,,2013-06-10 18:07:00,
2013-06-10 14:14:00,88.0,78.0,30.07,ESE,111,4.0,10.0,72,0.00,,,0.00,,2013-06-10 18:14:00,
2013-06-10 14:25:00,88.0,78.0,30.07,East,91,2.0,8.0,73,0.00,,,0.00,,2013-06-10 18:25:00,
2013-06-10 14:35:00,88.0,78.0,30.06,NNE,29,4.0,10.0,72,0.00,,,0.00,,2013-06-10 18:35:00,
2013-06-10 14:48:00,88.0,78.0,30.06,NNE,29,4.0,10.0,72,0.00,,,0.00,,2013-06-10 18:48:00,
2013-06-10 14:55:00,88.0,78.0,30.06,East,97,4.0,12.0,72,0.00,,,0.00,,2013-06-10 18:55:00,
2013-06-10 15:03:00,88.0,77.0,30.06,East,79,3.0,9.0,71,0.00,,,0.00,,2013-06-10 19:03:00,
2013-06-10 15:13:00,88.0,77.0,30.06,East,79,3.0,9.0,71,0.00,,,0.00,,2013-06-10 19:13:00,
2013-06-10 15:22:00,89.0,78.0,30.06,East,79,2.0,7.0,70,0.00,,,0.00,,2013-06-10 19:22:00,
2013-06-10 15:33:00,88.0,77.0,30.06,SSE,148,2.0,9.0,71,0.00,,,0.00,,2013-06-10 19:33:00,
2013-06-10 15:43:00,89.0,78.0,30.05,ENE,68,3.0,9.0,71,0.00,,,0.00,,2013-06-10 19:43:00,
2013-06-10 15:53:00,89.0,78.0,30.05,ENE,68,3.0,9.0,71,0.00,,,0.00,,2013-06-10 19:53:00,
2013-06-10 16:03:00,89.0,77.0,30.05,ESE,108,3.0,8.0,68,0.00,,,0.00,,2013-06-10 20:03:00,
2013-06-10 16:12:00,89.0,77.0,30.05,ESE,108,3.0,8.0,68,0.00,,,0.00,,2013-06-10 20:12:00,
2013-06-10 16:23:00,89.0,78.0,30.04,ESE,108,1.0,8.0,70,0.00,,,0.00,,2013-06-10 20:23:00,
2013-06-10 16:32:00,88.0,77.0,30.04,ESE,111,4.0,9.0,70,0.00,,,0.00,,2013-06-10 20:32:00,
2013-06-10 16:43:00,88.0,77.0,30.04,ESE,111,4.0,9.0,70,0.00,,,0.00,,2013-06-10 20:43:00,
2013-06-10 16:53:00,88.0,77.0,30.04,ESE,103,4.0,11.0,70,0.00,,,0.00,,2013-06-10 20:53:00,
2013-06-10 17:02:00,88.0,77.0,30.04,South,176,3.0,7.0,71,0.00,,,0.00,,2013-06-10 21:02:00,
2013-06-10 17:12:00,88.0,77.0,30.04,South,176,3.0,7.0,71,0.00,,,0.00,,2013-06-10 21:12:00,
2013-06-10 17:23:00,88.0,77.0,30.04,East,84,3.0,9.0,71,0.00,,,0.00,,2013-06-10 21:23:00,
2013-06-10 17:33:00,87.0,77.0,30.03,East,95,2.0,7.0,72,0.00,,,0.00,,2013-06-10 21:33:00,
2013-06-10 17:43:00,87.0,77.0,30.03,East,95,2.0,7.0,72,0.00,,,0.00,,2013-06-10 21:43:00,
2013-06-10 17:53:00,88.0,77.0,30.03,East,101,3.0,9.0,71,0.00,,,0.00,,2013-06-10 21:53:00,
2013-06-10 18:03:00,86.0,76.0,30.03,ENE,76,3.0,9.0,73,0.00,,,0.00,,2013-06-10 22:03:00,
2013-06-10 18:13:00,86.0,76.0,30.03,ENE,76,3.0,9.0,73,0.00,,,0.00,,2013-06-10 22:13:00,
2013-06-10 18:22:00,87.0,77.0,30.03,East,86,4.0,6.0,72,0.00,,,0.00,,2013-06-10 22:22:00,
2013-06-10 18:33:00,87.0,78.0,30.03,East,86,1.0,8.0,74,0.00,,,0.00,,2013-06-10 22:33:00,
2013-06-10 18:42:00,87.0,77.0,30.03,ESE,105,2.0,6.0,73,0.00,,,0.00,,2013-06-10 22:42:00,
2013-06-10 18:52:00,87.0,77.0,30.03,ESE,105,2.0,6.0,73,0.00,,,0.00,,2013-06-10 22:52:00,
2013-06-10 19:03:00,87.0,77.0,30.02,ENE,60,1.0,6.0,73,0.00,,,0.00,,2013-06-10 23:03:00,
2013-06-10 19:12:00,86.0,77.0,30.03,East,86,3.0,7.0,74,0.00,,,0.00,,2013-06-10 23:12:00,
2013-06-10 19:22:00,86.0,77.0,30.03,East,86,3.0,7.0,74,0.00,,,0.00,,2013-06-10 23:22:00,
2013-06-10 19:32:00,85.0,77.0,30.03,NE,42,1.0,6.0,78,0.00,,,0.00,,2013-06-10 23:32:00,
2013-06-10 19:42:00,84.0,77.0,30.03,ENE,63,2.0,6.0,79,0.00,,,0.00,,2013-06-10 23:42:00,
2013-06-10 19:52:00,84.0,77.0,30.03,ENE,63,2.0,6.0,79,0.00,,,0.00,,2013-06-10 23:52:00,
2013-06-10 20:02:00,83.0,77.0,30.03,East,96,2.0,8.0,81,0.00,,,0.00,,2013-06-11 00:02:00,
2013-06-10 20:12:00,83.0,77.0,30.04,ENE,77,2.0,7.0,82,0.00,,,0.00,,2013-06-11 00:12:00,
2013-06-10 20:22:00,83.0,77.0,30.04,ENE,77,2.0,7.0,82,0.00,,,0.00,,2013-06-11 00:22:00,
2013-06-10 20:32:00,83.0,77.0,30.04,East,84,2.0,5.0,83,0.00,,,0.00,,2013-06-11 00:32:00,
2013-06-10 20:42:00,82.0,76.0,30.06,ENE,73,2.0,6.0,83,0.00,,,0.00,,2013-06-11 00:42:00,
2013-06-10 20:52:00,82.0,76.0,30.06,ENE,73,2.0,6.0,83,0.00,,,0.00,,2013-06-11 00:52:00,
2013-06-10 21:02:00,82.0,77.0,30.06,East,80,1.0,6.0,84,0.00,,,0.00,,2013-06-11 01:02:00,
2013-06-10 21:12:00,82.0,77.0,30.06,East,90,2.0,7.0,85,0.00,,,0.00,,2013-06-11 01:12:00,
2013-06-10 21:22:00,82.0,77.0,30.06,East,90,2.0,7.0,85,0.00,,,0.00,,2013-06-11 01:22:00,
2013-06-10 21:33:00,82.0,77.0,30.08,East,86,1.0,5.0,85,0.00,,,0.00,,2013-06-11 01:33:00,
2013-06-10 21:42:00,82.0,77.0,30.08,ESE,116,1.0,3.0,85,0.00,,,0.00,,2013-06-11 01:42:00,
2013-06-10 21:52:00,82.0,77.0,30.08,ESE,116,1.0,3.0,85,0.00,,,0.00,,2013-06-11 01:52:00,
2013-06-10 22:03:00,82.0,77.0,30.08,East,81,3.0,5.0,86,0.00,,,0.00,,2013-06-11 02:03:00,
2013-06-10 22:12:00,82.0,77.0,30.09,East,96,1.0,4.0,86,0.00,,,0.00,,2013-06-11 02:12:00,
2013-06-10 22:22:00,82.0,77.0,30.09,East,96,1.0,4.0,86,0.00,,,0.00,,2013-06-11 02:22:00,
2013-06-10 22:32:00,82.0,77.0,30.09,East,82,0.0,2.0,86,0.00,,,0.00,,2013-06-11 02:32:00,
2013-06-10 22:42:00,82.0,77.0,30.09,East,85,0.0,4.0,86,0.00,,,0.00,,2013-06-11 02:42:00,
2013-06-10 22:52:00,82.0,77.0,30.09,East,85,0.0,4.0,86,0.00,,,0.00,,2013-06-11 02:52:00,
2013-06-10 23:02:00,82.0,77.0,30.09,ESE,103,1.0,3.0,86,0.00,,,0.00,,2013-06-11 03:02:00,
2013-06-10 23:13:00,82.0,77.0,30.09,East,93,1.0,4.0,86,0.00,,,0.00,,2013-06-11 03:13:00,
2013-06-10 23:22:00,82.0,77.0,30.09,East,93,1.0,4.0,86,0.00,,,0.00,,2013-06-11 03:22:00,
2013-06-10 23:32:00,82.0,78.0,30.09,ESE,108,0.0,4.0,87,0.00,,,0.00,,2013-06-11 03:32:00,
2013-06-10 23:43:00,82.0,78.0,30.09,East,88,1.0,3.0,87,0.00,,,0.00,,2013-06-11 03:43:00,
2013-06-10 23:53:00,82.0,78.0,30.09,East,88,1.0,3.0,87,0.00,,,0.00,,2013-06-11 03:53:00,